Home > Weather > Virginia Beach > Past weeks

Flag for USA Past Weather in Virginia Beach, Virginia, USA — Yesterday and Last 2 Weeks

Now
73 °F

Clear.


Feels Like: 75 °F
Forecast: 67 / 79 °F
Wind: 9 mph from Northeast

Location: Virginia Beach - Oceana

Current Time: Jun 25, 2016 at 10:50:16 PM

Latest Report: Jun 25, 2016 at 9:56 PM


Visibility: 10 mi

Pressure: 30.18 "Hg

Humidity: 71%

Dew Point: 63 °F

Location of Virginia BeachLocation

Past Weather in Virginia Beach — Graph

°F

Virginia Beach Temperature Yesterday

Maximum temperature yesterday: 88 °F (at 4:56 PM)
Minimum temperature yesterday: 75 °F (at 4:56 AM)
Average temperature yesterday: 81 °F

High & Low Weather Summary for the Past Weeks

 TemperatureHumidityPressure
High97 °F (Jun 12, 1:56 PM)84% (Jun 16, 11:56 PM)30.36 "Hg (Jun 16, 11:56 PM)
Low63 °F (Jun 19, 1:56 AM)26% (Jun 19, 1:56 PM)29.65 "Hg (Jun 17, 3:56 AM)
Average79 °F59%29.98 "Hg
* Reported Jun 10 8:56 PM — Jun 25 8:56 PM, Virginia Beach, Weather by CustomWeather, © 2016

Note: Actual official high and low records may vary slightly from our data, if they occured in-between our weather recording intervals... More about our weather records

Advertising

Virginia Beach Weather History for the Previous 24 Hours

Scroll right to see more
 ConditionsComfort  
Time TempWeatherWind HumidityBarometerVisibility
8:56 PM
Sat, Jun 25
73 °FPassing clouds.12 mph69%30.16 "Hg10 mi
7:56 PM74 °FScattered clouds.12 mph71%30.17 "Hg10 mi
6:56 PM77 °FScattered clouds.12 mph66%30.16 "Hg10 mi
5:56 PM78 °FPassing clouds.13 mph64%30.15 "Hg10 mi
4:56 PM77 °FPartly sunny.14 mph66%30.16 "Hg10 mi
3:56 PM78 °FPartly sunny.17 mph64%30.16 "Hg10 mi
2:56 PM79 °FPartly sunny.16 mph65%30.14 "Hg10 mi
1:56 PM79 °FPartly sunny.14 mph65%30.14 "Hg10 mi
12:56 PM78 °FMostly cloudy.13 mph69%30.14 "Hg10 mi
11:56 AM78 °FMostly cloudy.13 mph71%30.13 "Hg10 mi
10:56 AM77 °FMostly cloudy.13 mph71%30.12 "Hg10 mi
9:56 AM77 °FMostly cloudy.9 mph71%30.12 "Hg10 mi
8:56 AM77 °FMostly cloudy.13 mph71%30.11 "Hg9 mi
7:56 AM76 °FLow clouds.15 mph77%30.09 "Hg8 mi
6:56 AM76 °FMostly cloudy.10 mph77%30.06 "Hg10 mi
5:56 AM76 °FPassing clouds.7 mph77%30.04 "Hg10 mi
4:56 AM76 °FMostly cloudy.10 mph77%30.02 "Hg10 mi
3:56 AM77 °FOvercast.9 mph79%30.00 "Hg10 mi
2:56 AM78 °FLow clouds.10 mph79%29.99 "Hg10 mi
1:56 AM78 °FPassing clouds.5 mph82%29.99 "Hg10 mi
12:56 AM79 °FPassing clouds.9 mph79%30.01 "Hg10 mi
11:56 PM
Fri, Jun 24
78 °FPassing clouds.No wind79%30.00 "Hg10 mi
10:56 PM78 °FPassing clouds.No wind79%29.99 "Hg10 mi
Weather by CustomWeather, © 2016

See weather overviewHow to use our weather pages